209P/LINEAR (2009)

Japanese version
Home page
Updated on May 17, 2009

---------------------------------------------------------------------

* Profile

Designation 209P/2008 X2
Recovery Date December 4, 2008
Magnitude 19.7 mag
Recoverer G. Hug (Scranton, KS, U.S.A.)

* Pictures

* Orbital Elements

                    Epoch = 2009 Mar. 30.0 TT
     T = 2009 Apr. 15.9744 TT         Peri. = 149.7295
     e = 0.688978                     Node  =  66.4497  2000.0
     q = 0.913706 AU                  Incl. =  19.1479
       a =  2.937753 AU    n = 0.1957407    P =   5.04 years

* Finding Charts

* Magnitudes Graph

        m1 = 18.0 + 5 log d + 2.0 log r

---------------------------------------------------------------------

The orbital elements are printed on IAUC 9002.
The charts are made with StellaNavigator Ver.8 (AstroArts).
The magnitudes graphs are made with Comet for Windows.

---------------------------------------------------------------------

Copyright(C) Seiichi Yoshida (comet@aerith.net). All rights reserved.